Tarboro, NC

8:34 AM EDT on August 26, 2016 (GMT -0400)
Tarboro-edgecombe

Weather History for KETC - July, 2012

Change the Weather History Date:

Saturday, July 21, 2012

  Actual Average Record
Temperature  
Mean Temperature 82 °F -  
Max Temperature 99 °F 91 °F 102 °F (1987)
Min Temperature 72 °F 68 °F 59 °F (1970)
Cooling Degree Days 16    
Growing Degree Days 32 (Base 50)    
Moisture  
Dew Point 72 °F    
Average Humidity 80    
Maximum Humidity 92    
Minimum Humidity 55    
Precipitation  
Precipitation 0.20 in - - ()
Sea Level Pressure  
Sea Level Pressure 30.00 in    
Wind  
Wind Speed 5 mph (SSW)    
Max Wind Speed 13 mph    
Max Gust Speed 23 mph    
Visibility 10 miles    
Events Rain    
Averages and records for this station are not official NWS values.
T = Trace of Precipitation, MM = Missing Value Source: NWS Daily Summary

Daily Weather History Graph

Daily Weather History Graph

Search for Another Location

Airport or City:

Trip Planner

Search our weather history database for the weather conditions in past years. The results will help you decide how hot, cold, wet, or windy it might be!

Date:

Astronomy

Jul. 21, 2012 Rise Set
Actual Time 6:09 AM EDT 8:23 PM EDT
Civil Twilight 5:40 AM EDT 8:52 PM EDT
Nautical Twilight 5:05 AM EDT 9:27 PM EDT
Astronomical Twilight 4:26 AM EDT 10:06 PM EDT
Moon 8:41 AM EDT (7/21) 9:42 PM EDT (7/21)
Length of Visible Light 15h 11m
Length of Day
14h 13m
Waxing Crescent, 7% of the Moon is Illuminated
Jul 21
Waxing Crescent
Jul 26
First Quarter
Aug 1
Full
Aug 9
Last Quarter
Aug 17
New

Hourly Weather History & Observations

Time (EDT) Temp. Heat Index Dew Point Humidity Pressure Visibility Wind Dir Wind Speed Gust Speed Precip Events Conditions
12:15 AM 76.5 °F - 72.7 °F 88% 29.95 in 10.0 mi South 5.8 mph - N/A   Overcast
12:35 AM 76.3 °F - 72.5 °F 88% 29.95 in 10.0 mi SSW 5.8 mph - N/A   Overcast
12:55 AM 76.1 °F - 72.3 °F 88% 29.95 in 10.0 mi SSW 3.5 mph - N/A   Overcast
1:15 AM 76.1 °F - 72.1 °F 87% 29.94 in 10.0 mi WSW 3.5 mph - N/A   Overcast
1:35 AM 76.1 °F - 72.5 °F 89% 29.94 in 10.0 mi SSW 4.6 mph - N/A   Scattered Clouds
1:55 AM 75.9 °F - 72.5 °F 89% 29.94 in 10.0 mi SSW 3.5 mph - N/A Rain Light Rain
2:35 AM 75.4 °F - 72.5 °F 91% 29.94 in 10.0 mi SSW 8.1 mph - N/A   Mostly Cloudy
2:55 AM 75.2 °F - 72.3 °F 91% 29.94 in 10.0 mi SSW 8.1 mph - N/A Rain Light Rain
4:15 AM 74.5 °F - 71.2 °F 90% 29.95 in 7.0 mi WSW 3.5 mph - N/A Rain Light Rain
4:35 AM 74.3 °F - 71.4 °F 91% 29.95 in 10.0 mi WSW 4.6 mph - N/A   Overcast
4:55 AM 74.3 °F - 71.4 °F 91% 29.95 in 10.0 mi SSW 3.5 mph - N/A   Overcast
5:15 AM 74.3 °F - 71.2 °F 90% 29.95 in 10.0 mi Calm Calm - N/A   Mostly Cloudy
5:35 AM 74.3 °F - 71.1 °F 90% 29.95 in 10.0 mi SW 3.5 mph - N/A   Scattered Clouds
5:55 AM 74.1 °F - 71.1 °F 90% 29.96 in 10.0 mi SW 3.5 mph - 0.01 in Rain Light Rain
6:15 AM 74.1 °F - 71.1 °F 90% 29.97 in 10.0 mi SW 5.8 mph - N/A   Overcast
6:35 AM 74.3 °F - 71.2 °F 90% 29.97 in 10.0 mi WSW 4.6 mph - N/A   Overcast
6:55 AM 74.3 °F - 71.1 °F 90% 29.98 in 10.0 mi SSW 4.6 mph - N/A   Scattered Clouds
7:15 AM 74.3 °F - 71.4 °F 91% 29.99 in 10.0 mi SW 5.8 mph - N/A   Mostly Cloudy
7:35 AM 74.8 °F - 71.6 °F 90% 29.99 in 10.0 mi SW 4.6 mph - N/A   Overcast
7:55 AM 75.2 °F - 71.6 °F 89% 30.00 in 10.0 mi West 4.6 mph - N/A   Overcast
8:55 AM 77.7 °F - 72.1 °F 83% 30.00 in 10.0 mi WSW 6.9 mph - N/A   Mostly Cloudy
9:15 AM 79.0 °F - 72.3 °F 80% 30.00 in 10.0 mi SW 5.8 mph - N/A   Scattered Clouds
10:15 AM 82.8 °F 88.7 °F 73.2 °F 73% 30.00 in 10.0 mi SW 4.6 mph - N/A   Scattered Clouds
10:35 AM 83.7 °F 90.1 °F 73.4 °F 71% 30.01 in 10.0 mi South 3.5 mph - N/A   Clear
10:55 AM 84.6 °F 91.0 °F 73.0 °F 68% 30.01 in 10.0 mi WSW 3.5 mph - N/A   Clear
11:15 AM 85.6 °F 92.2 °F 72.9 °F 65% 30.02 in 10.0 mi SSW 4.6 mph - N/A   Scattered Clouds
11:55 AM 86.4 °F 93.4 °F 72.7 °F 64% 30.02 in 10.0 mi SW 3.5 mph - N/A   Mostly Cloudy
12:15 PM 85.5 °F 92.2 °F 73.0 °F 66% 30.02 in 10.0 mi SSW 4.6 mph - N/A   Mostly Cloudy
12:35 PM 87.3 °F 95.3 °F 73.6 °F 64% 30.03 in 10.0 mi SSW 6.9 mph - N/A   Scattered Clouds
12:55 PM 87.8 °F 95.6 °F 73.2 °F 62% 30.02 in 10.0 mi SW 3.5 mph - N/A   Scattered Clouds
1:15 PM 88.5 °F 96.3 °F 73.2 °F 60% 30.02 in 10.0 mi SSW 6.9 mph - N/A   Mostly Cloudy
1:35 PM 87.6 °F 96.2 °F 73.9 °F 64% 30.02 in 10.0 mi SSW 8.1 mph - N/A   Mostly Cloudy
1:55 PM 87.1 °F 95.4 °F 74.1 °F 65% 30.01 in 10.0 mi SW 5.8 mph - N/A   Mostly Cloudy
2:35 PM 88.9 °F 97.1 °F 73.2 °F 60% 30.00 in 10.0 mi SSW 5.8 mph - N/A   Scattered Clouds
2:55 PM 89.1 °F 97.0 °F 73.0 °F 59% 30.00 in 10.0 mi SW 4.6 mph - N/A   Scattered Clouds
3:15 PM 89.4 °F 97.8 °F 73.2 °F 59% 29.99 in 10.0 mi SSW 4.6 mph - N/A   Mostly Cloudy
3:35 PM 91.2 °F 100.2 °F 73.4 °F 56% 29.98 in 10.0 mi SSW 6.9 mph - N/A   Scattered Clouds
4:15 PM 90.7 °F 98.5 °F 72.7 °F 55% 29.97 in 10.0 mi SSW 4.6 mph - N/A   Scattered Clouds
4:35 PM 90.1 °F 97.8 °F 72.7 °F 56% 29.97 in 10.0 mi SSW 4.6 mph - N/A   Scattered Clouds
4:55 PM 88.0 °F 95.6 °F 73.0 °F 61% 29.96 in 10.0 mi SSW 3.5 mph - N/A   Mostly Cloudy
5:15 PM 84.2 °F 89.9 °F 72.1 °F 67% 29.98 in 10.0 mi SSW 11.5 mph 23.0 mph N/A Rain Light Rain
5:35 PM 77.4 °F - 69.3 °F 76% 29.99 in 10.0 mi SSW 9.2 mph - N/A Rain Light Rain
5:55 PM 76.8 °F - 68.4 °F 75% 30.02 in 10.0 mi South 12.7 mph 21.9 mph N/A   Mostly Cloudy
6:15 PM 74.8 °F - 69.3 °F 83% 30.01 in 4.0 mi SSE 6.9 mph - 0.05 in Rain Heavy Rain
6:35 PM 74.5 °F - 70.9 °F 88% 29.98 in 10.0 mi SE 5.8 mph - 0.06 in Rain Light Rain
6:55 PM 74.3 °F - 70.9 °F 89% 29.99 in 10.0 mi SSE 6.9 mph - 0.06 in   Scattered Clouds
7:15 PM 74.5 °F - 70.9 °F 88% 30.02 in 10.0 mi SSE 3.5 mph - N/A   Clear
7:35 PM 74.7 °F - 70.7 °F 87% 30.03 in 10.0 mi South 4.6 mph - N/A   Scattered Clouds
7:55 PM 74.7 °F - 70.7 °F 87% 30.05 in 10.0 mi North 5.8 mph - N/A   Scattered Clouds
8:15 PM 74.5 °F - 71.1 °F 89% 30.07 in 10.0 mi North 4.6 mph - N/A   Mostly Cloudy
8:35 PM 74.3 °F - 71.1 °F 90% 30.05 in 7.0 mi NE 5.8 mph - 0.01 in Rain Light Rain
8:55 PM 74.3 °F - 70.9 °F 89% 30.05 in 10.0 mi North 3.5 mph - 0.01 in   Overcast
9:15 PM 74.3 °F - 71.1 °F 90% 30.08 in 10.0 mi Calm Calm - N/A   Overcast
9:35 PM 74.3 °F - 71.2 °F 90% 30.08 in 10.0 mi SE 3.5 mph - N/A   Overcast
9:55 PM 74.3 °F - 71.4 °F 91% 30.09 in 10.0 mi WNW 3.5 mph - 0.01 in Rain Light Rain
10:15 PM 74.3 °F - 71.6 °F 91% 30.11 in 10.0 mi SW 6.9 mph - N/A Rain Rain
10:35 PM 73.6 °F - 71.1 °F 92% 30.08 in 4.0 mi SSE 6.9 mph - 0.11 in Rain Light Rain
10:55 PM 72.9 °F - 70.2 °F 91% 30.08 in 10.0 mi Calm Calm - 0.11 in Rain Light Rain
11:15 PM 72.9 °F - 70.3 °F 92% 30.06 in 10.0 mi SSE 6.9 mph - N/A   Mostly Cloudy
11:35 PM 73.2 °F - 70.7 °F 92% 30.06 in 10.0 mi Calm Calm - N/A   Mostly Cloudy